STARLINK-32567, 61930

Orbit data source: Space-Track

STARLINK-32567, 61930 is a payload satellite owned by SpaceX/Seattle (US) in LEO that was launched on Mon, 11 Nov 2024 UTC via an FALCON 9 launch vehicle from the Air Force Eastern Test Range (AFETR). Payload-class satellites include a variety of spacecraft equipped with specific instruments for various scientific and technological missions. These include communications satellites like Starlink; space stations such as the ISS; scientific satellites like the Hubble; Earth observation satellites from companies like Planet Labs, Umbra, and HawkEye 360; GPS; miniature CubeSats for education and research; and military/defense satellites.

Loading next visibility...
Identifier
61930, 2024-207U
Orbit
LEO
Country
Flag of USUS
Related business
Manufacturer
SpaceX/Seattle
Mission
Operational Commercial Communications
Bus & Motor
STARLINK V2M, Unknown motor
Mass
730 kg wet, ~700 kg dry
Launch date (UTC)
2024-11-11 (2 years ago)
Launch vehicle
FALCON 9
Launch site
Air Force Eastern Test Range (AFETR)
Object type
Payload
Rocket body
Debris
Shape & HBR
Box + 2 Pan, 17.7 m
Radar Cross Section
33.884 m², Large (>1 m²)

Expand to show TLE details & history
Last TLE update: 8 hours ago

TLE from 8 hours ago
0 STARLINK-32567
1 61930U 24207U   26145.60151169  .00013186  00000-0  48775-3 0  9994
2 61930  43.0021 204.0022 0001217 271.6025  88.4687 15.27586427 87110
Epoch: 2026-05-25T14:26Z
TLE epoch observation values (Epoch: 2026-05-25T14:26:10.610Z)
Latitude
-0.00002°
Longitude
104.27102°
Altitude
482.783 km
Speed
7.626 km/s
True Right ascension
13h 36m 00s
True Declination
0° 00' 00"
Sunlit
Object was in full shadow at epoch
Visualization orbit readout
Latitude
Unknown
Longitude
Unknown
Altitude
Unknown
Speed
Unknown
Apparent Right ascension
Unknown
Apparent Declination
Unknown
Sunlit
N/A
Visualization observer readout
Local Sidereal Time
07:16:43
Azimuth
Unknown
Elevation
Unknown
Doppler factor
Unknown
Orbital elements
Apogee altitude
485.81 km
Perigee altitude
484.139 km
Semi-major axis
6,863.112 km
Eccentricity
0.00012
Inclination
43.0021°
RAAN
204.0022°
Arg. of periapsis
271.6025°
True anomaly
88.48264°
Mean anomaly
88.4687°
Eccentric anomaly
88.47567°
Mean motion
3.81735 °/min
Orbital period
94.31 mins
BSTAR
0.00048775
Loading maneuver chart data...
Computing Atmospheric mass density...
Loading historical data...
Loading historical data...
Loading historical data...
Loading historical data...
Loading historical data...
Loading historical data...
Loading historical data...

Documentation

Showing up to 5 results
|